This is the latest recevied weather packets stored in our database for station/object KB1FFS. If no packets are shown the sender has not sent any weather packets the latest 10 day(s).
| Time | Temp. | Humidity | Pressure | Rain* | Wind** | Luminosity | Snow |
|---|---|---|---|---|---|---|---|
| 1787959792 | 39.44° C | 29% | 1015 hPa | 0 mm | - | 150 W/m² | - |
| 1787959487 | 39.44° C | 28% | 1015.2 hPa | 0 mm | - | 162 W/m² | - |
| 1787959182 | 39.44° C | 28% | 1015.2 hPa | 0 mm | - | 179 W/m² | - |
| 1787958878 | 40° C | 28% | 1015.2 hPa | 0 mm | - | 196 W/m² | - |
| 1787958577 | 40° C | 28% | 1015.2 hPa | 0 mm | - | 207 W/m² | - |
| 1787958273 | 39.44° C | 29% | 1015.2 hPa | 0 mm | - | 222 W/m² | - |
| 1787957972 | 39.44° C | 29% | 1015.1 hPa | 0 mm | - | 240 W/m² | - |
| 1787957667 | 39.44° C | 27% | 1015.1 hPa | 0 mm | - | 261 W/m² | - |
| 1787957362 | 40° C | 28% | 1015.2 hPa | 0 mm | - | 273 W/m² | - |
| 1787957061 | 39.44° C | 28% | 1015.2 hPa | 0 mm | - | 297 W/m² | - |
| 1787956761 | 40° C | 28% | 1015.1 hPa | 0 mm | - | 319 W/m² | - |
| 1787956457 | 40° C | 29% | 1015.3 hPa | 0 mm | - | 336 W/m² | - |
| 1787956152 | 40° C | 28% | 1015.3 hPa | 0 mm | - | 360 W/m² | - |
| 1787955846 | 40° C | 28% | 1015.4 hPa | 0 mm | - | 363 W/m² | - |
| 1787955542 | 40° C | 29% | 1015.5 hPa | 0 mm | - | 389 W/m² | - |
| 1787955241 | 40° C | 29% | 1015.4 hPa | 0 mm | - | 404 W/m² | - |
| 1787954936 | 39.44° C | 28% | 1015.6 hPa | 0 mm | - | 417 W/m² | - |
| 1787954633 | 39.44° C | 29% | 1015.8 hPa | 0 mm | - | 431 W/m² | - |
| 1787954332 | 39.44° C | 29% | 1015.9 hPa | 0 mm | - | 473 W/m² | - |
| 1787954027 | 39.44° C | 29% | 1015.7 hPa | 0 mm | - | 473 W/m² | - |
| 1787953725 | 39.44° C | 29% | 1015.8 hPa | 0 mm | - | 487 W/m² | - |
| 1787953421 | 39.44° C | 31% | 1016 hPa | 0 mm | - | 512 W/m² | - |
| 1787953119 | 39.44° C | 30% | 1016 hPa | 0 mm | - | 516 W/m² | - |
| 1787952818 | 39.44° C | 31% | 1015.9 hPa | 0 mm | - | 528 W/m² | - |
| 1787952513 | 39.44° C | 31% | 1016.1 hPa | 0 mm | - | 540 W/m² | - |
* Rain latest hour (hover to see other rain measurements)
** Current wind speed in m/s (hover to see current wind gust speed)